Theta_e
337 338 345 345 347 350 352 353 352 352 353 352 354 353 351 351 352 351 348 347 347 349 346 347 346 350 346 347 345 344 342 339
331 330 335 343 345 347 349 348 346 349 350 350 352 350 351 349 351 350 346 344 342 343 343 342 342 342 341 341 340 340 339 339
329 337 337 340 340 342 345 346 346 349 348 349 349 349 350 350 349 350 348 344 341 341 341 339 340 341 340 339 338 337 337 337
328 337 335 337 338 340 343 343 346 347 345 346 347 349 349 348 348 349 349 344 340 339 338 340 338 339 337 335 336 337 339 338
328 337 335 336 337 340 341 341 343 343 342 343 343 345 345 344 344 346 346 340 339 339 336 338 335 335 334 334 334 334 334 336
326 336 338 337 337 338 339 343 341 337 336 338 339 340 342 341 343 345 344 343 342 336 334 337 336 335 335 335 334 331 332 333
321 336 340 339 338 337 336 337 335 334 331 335 337 336 338 340 342 343 342 342 340 336 335 335 337 335 334 335 334 333 329 331
320 335 339 340 338 339 336 334 333 331 330 336 338 333 333 337 338 342 342 341 341 338 336 336 335 333 333 333 331 331 331 330
318 332 336 341 339 337 334 330 330 330 327 330 337 332 331 332 334 337 338 342 342 340 337 336 334 332 333 332 331 328 328 329
317 330 333 336 335 335 332 330 329 330 332 328 330 327 328 331 332 334 336 340 339 337 337 338 334 332 331 331 329 328 326 331
318 327 328 331 333 333 332 331 329 330 330 328 327 327 327 330 328 330 333 334 338 331 332 330 328 329 330 328 328 329 323 323
319 326 327 329 331 333 332 330 328 330 329 329 327 323 324 328 328 328 330 331 333 331 330 330 329 328 326 326 328 327 322 319
317 326 329 330 331 329 327 328 328 329 330 330 331 328 330 331 332 330 328 330 333 337 335 331 325 325 324 324 321 320 320 320
317 327 331 331 330 327 326 327 326 329 330 332 332 330 327 327 323 323 322 322 323 324 324 324 323 322 321 319 317 316 315 315
322 327 329 334 334 332 329 323 319 321 323 323 323 322 324 323 319 318 320 315 315 316 317 317 317 317 317 315 313 313 312 312
324 327 331 325 320 321 319 317 316 317 317 316 316 315 315 313 313 312 313 312 314 313 314 314 315 315 314 313 311 311 311 311
322 320 318 317 316 316 316 316 315 315 315 315 314 314 313 312 312 312 312 312 314 313 314 313 313 313 313 311 311 311 311 311
316 317 316 317 317 316 317 317 315 313 313 313 312 311 312 312 312 310 311 311 312 312 311 311 311 311 311 310 309 310 310 310
313 313 312 311 312 313 313 313 312 309 311 308 309 309 311 310 309 309 309 309 310 310 311 311 311 310 310 308 308 308 308 308
307 306 307 308 308 309 309 309 307 305 305 305 305 305 305 305 305 306 307 307 307 308 310 309 309 308 307 306 306 307 307 306
Wind_Speed
4 1 11 12 13 10 10 11 10 8 8 5 4 3 3 5 9 7 6 5 4 3 3 2 1 4 3 4 4 3 4 3
3 8 7 13 12 13 11 11 10 9 7 5 6 5 6 5 7 9 6 4 4 4 3 4 4 2 2 3 3 5 6 5
6 6 7 10 12 13 14 13 12 12 11 8 8 8 8 7 6 8 8 7 5 3 3 1 3 3 2 3 2 2 3 4
6 9 9 11 10 12 13 12 11 13 11 12 10 10 8 7 7 8 7 4 4 4 4 5 4 5 5 4 6 5 5 5
18 16 15 16 13 13 14 13 10 12 11 8 3 6 5 5 3 6 8 8 7 6 4 5 5 4 6 5 5 3 4 4
10 14 14 14 15 15 11 10 9 5 5 4 3 2 3 5 4 4 9 6 10 8 6 5 5 4 3 1 1 3 3 4
8 14 17 18 17 15 13 9 7 6 6 4 4 3 4 4 6 6 10 11 12 10 7 6 5 5 5 3 1 3 0 1
12 12 15 15 14 14 9 6 7 6 4 4 3 4 3 3 3 6 9 8 10 8 6 8 9 6 3 5 4 4 2 5
11 9 7 13 14 14 12 10 9 8 4 4 3 3 2 1 2 5 5 7 10 4 4 8 9 7 6 3 3 4 4 3
8 11 11 16 18 17 12 12 9 6 6 3 3 3 3 3 3 4 4 2 5 3 5 4 3 2 3 3 3 4 3 5
10 14 14 12 16 16 16 16 12 9 6 4 3 3 2 2 2 2 2 4 4 5 5 5 4 3 3 3 4 6 3 3
9 13 14 16 16 14 11 10 11 10 7 6 4 4 3 3 3 3 3 4 3 4 4 5 4 3 4 4 4 4 3 3
17 18 19 17 12 11 9 9 10 9 9 6 5 5 4 3 3 6 5 5 5 5 4 4 4 3 3 3 2 3 3 3
11 9 11 11 8 7 9 9 6 6 6 5 7 6 4 4 3 4 3 3 3 5 6 5 5 4 3 3 2 2 3 3
14 15 12 12 13 10 8 9 7 8 7 6 4 4 5 5 5 4 5 3 3 5 4 5 3 3 3 2 0 2 2 2
13 12 13 11 13 13 13 12 9 9 7 8 6 7 6 5 6 5 5 3 3 3 4 4 3 2 1 0 1 2 3 4
14 14 14 15 14 13 14 13 11 9 9 8 9 9 9 8 8 6 4 3 2 4 4 4 3 3 2 2 2 4 3 5
16 16 15 12 11 12 13 10 11 9 8 8 6 7 7 6 6 6 5 2 2 3 3 3 4 4 4 4 4 5 5 5
17 14 14 14 13 11 9 11 9 8 6 7 7 7 6 5 6 5 3 2 3 3 3 3 3 3 4 4 6 6 7 6
17 16 16 15 14 12 10 8 9 7 7 8 7 7 7 8 7 7 6 6 5 5 5 4 5 5 6 5 6 6 6 5
Wind_Direction
92 51 167 155 142 156 159 146 138 145 145 139 151 151 166 164 161 164 162 152 172 176 179 206 206 250 228 241 264 269 262 258
137 126 131 144 149 147 148 146 141 146 139 143 167 165 176 183 189 164 161 160 176 185 184 198 210 216 288 353 345 340 328 321
134 125 112 134 150 157 165 167 159 156 152 160 173 184 189 186 173 181 169 173 178 163 186 136 64 94 89 57 30 327 314 317
146 155 157 154 161 170 166 169 166 165 168 182 188 182 182 182 187 195 168 166 112 140 123 125 93 100 104 101 88 86 91 84
180 172 172 164 175 165 172 175 174 179 175 172 194 198 199 175 199 179 148 138 147 126 121 123 121 125 128 130 117 147 137 121
186 172 164 169 163 175 176 180 186 185 119 121 105 66 98 98 106 119 116 111 125 117 122 136 145 135 99 49 130 114 322 13
182 180 168 173 173 174 179 178 179 167 107 100 77 98 114 138 125 128 131 141 131 139 152 163 181 175 184 213 179 310 250 235
188 187 179 172 174 177 180 177 168 142 113 108 94 73 71 71 109 143 162 149 153 162 168 194 185 185 205 170 180 195 215 212
179 172 159 162 169 177 183 175 182 157 140 130 148 162 109 160 174 192 185 187 197 175 195 190 186 183 202 128 132 168 239 236
161 158 163 175 175 183 180 193 180 177 178 145 127 143 186 170 183 222 222 227 136 158 198 173 245 99 153 198 164 136 214 193
164 168 177 167 178 185 192 192 180 181 172 111 87 80 57 107 207 211 212 190 164 153 150 142 172 164 190 196 184 189 226 217
172 172 171 179 191 191 192 187 185 183 159 160 143 156 165 193 177 174 173 208 211 164 153 156 184 187 205 205 181 194 184 226
177 182 179 184 178 180 170 171 188 184 177 170 156 167 173 165 153 159 171 195 196 174 167 162 152 142 177 166 135 151 182 161
168 159 153 159 143 136 142 161 171 157 153 175 196 190 169 151 120 129 129 111 109 100 116 124 114 116 112 106 133 167 195 205
140 145 141 147 149 136 110 95 58 60 67 47 42 108 162 135 111 113 106 77 47 61 73 87 81 96 109 131 162 293 292 284
139 135 129 107 86 88 87 88 87 82 97 84 77 73 81 76 84 84 70 74 97 98 92 89 91 91 73 300 285 265 248 255
73 79 89 87 84 90 100 96 82 63 70 73 69 66 67 75 66 78 79 82 90 72 64 44 16 348 331 308 280 281 274 268
80 80 74 73 77 89 86 73 91 82 75 71 69 81 85 82 80 80 80 60 48 40 19 7 344 337 328 322 296 281 267 259
76 71 64 61 49 43 57 76 77 75 65 67 62 56 48 67 70 62 54 30 12 356 331 315 295 291 293 279 270 268 262 268
85 77 71 66 61 52 40 52 72 70 73 72 69 59 44 42 31 15 9 0 353 340 332 328 310 302 298 301 287 281 271 270